BEIDOU-3 M8 (C30)

Last updated on Aug. 15, 2020, 5:35 a.m. UTC

1 43246U 18029B   20226.93244082 -.00000074  00000-0  10000-3 0  9999
2 43246  55.3123  13.4694 0003191 350.6043 248.3018  1.86233289 16153
UTC
Height (km)
Latitude
Longitude
Inclination
Orbital Period
UTC large
Height (km)
Speed (km/s)
/
Latitude / Longitude
Inclination (degrees)
Orbital Period (minutes)
Azimuth
Elevation
Range (km)
Doppler Factor
iOS Compass Heading
iOS Angle

Next 30 passes for location: Hong Kong

Rise time Rise Azimuth (degrees) Set time Set Azimuth (degrees) Duration Max altitude (degrees)

No matching passes for this satellites